Wind_Speed
10 10 10 11 10 11 12 12 13 14 15 16 17 18 18 19 20 20 21 21 21 20 21 22 22 23 23 23 23 23 22 21 21 21 22 22 23 23 23 23 23 24 25 24
9 10 10 8 7 9 10 11 12 13 14 16 17 18 19 20 21 20 20 20 21 20 21 21 22 22 22 22 22 21 20 20 21 21 22 22 23 24 23 23 22 23 23 23
8 9 9 8 8 9 9 11 12 14 14 16 18 19 20 20 20 20 19 19 20 20 20 20 20 21 21 21 21 21 21 21 21 21 21 22 22 22 22 22 22 22 22 22
6 7 8 8 8 8 9 10 12 13 14 15 16 17 19 19 19 19 18 17 18 19 18 19 19 19 19 19 19 20 20 20 20 21 21 20 20 20 20 20 20 20 21 20
5 6 7 7 7 8 9 9 10 12 13 13 14 16 17 17 18 18 17 17 17 18 18 18 18 17 17 17 18 18 18 18 18 18 18 18 19 19 19 19 18 18 18 18
5 6 6 6 6 7 8 8 9 11 12 12 13 15 16 16 16 16 16 17 17 18 17 16 16 16 15 16 16 16 16 16 16 16 16 17 16 16 16 16 16 17 16 16
5 5 5 5 6 6 7 8 9 10 11 12 13 14 15 15 16 16 16 17 17 17 16 15 14 14 14 14 13 13 13 13 13 13 13 13 13 13 13 13 13 13 13 13
4 4 4 4 5 6 7 8 9 10 11 12 13 14 15 15 16 16 16 17 17 16 14 13 12 11 11 11 11 11 11 11 10 10 10 10 10 11 11 11 11 11 11 11
3 3 3 4 5 6 7 8 9 10 10 12 13 14 15 15 16 16 16 16 16 15 13 12 10 10 9 10 10 10 9 8 8 8 9 10 10 10 9 9 9 9 9 9
3 3 3 4 5 5 6 7 8 9 10 11 12 13 14 15 16 16 16 16 15 14 13 11 9 9 9 10 10 9 8 8 8 9 10 10 9 9 8 7 7 7 7 7
3 3 3 4 4 5 7 8 8 9 9 10 12 13 13 14 15 15 15 15 15 14 13 11 10 9 9 10 10 9 9 9 9 10 10 9 9 9 9 8 7 5 5 5
2 2 2 3 4 5 6 8 8 8 9 10 11 13 13 14 15 15 15 15 14 13 13 12 12 11 10 10 11 11 10 10 10 10 9 9 10 10 9 8 7 5 4 4
1 1 2 3 4 4 6 7 8 9 9 10 12 13 13 14 15 15 15 14 14 13 13 13 12 12 12 11 11 11 11 10 10 10 10 10 9 8 8 8 7 6 6 5
1 2 2 3 3 4 5 6 8 9 9 10 12 13 13 13 14 15 15 15 14 14 14 13 13 13 13 12 11 11 11 10 10 10 10 10 10 9 8 8 7 7 7 7
1 2 2 3 3 4 5 6 7 8 9 10 11 12 13 13 14 14 15 15 15 15 15 14 14 13 14 13 12 12 11 11 10 10 10 10 10 9 9 8 7 7 7 8
2 2 3 3 4 4 5 6 7 8 9 10 11 12 13 13 14 14 14 14 14 15 15 15 15 14 14 14 13 13 13 12 11 11 10 10 10 9 9 9 8 7 7 7
4 4 4 3 4 5 5 6 7 8 9 10 11 11 12 13 13 13 14 14 14 14 14 14 14 15 15 15 14 14 14 13 12 12 11 10 9 9 9 9 8 8 7 7
4 5 5 5 5 5 6 6 7 8 9 10 11 11 12 13 13 14 13 13 13 13 14 14 14 14 14 14 14 14 14 13 13 12 11 10 9 9 8 8 8 8 8 7
6 6 6 6 6 7 7 7 8 9 9 10 11 11 12 13 14 14 14 14 14 14 14 14 14 14 15 15 14 14 14 13 12 11 10 10 10 9 8 8 7 7 7 6
7 7 7 8 8 8 8 8 9 9 10 10 11 11 12 13 13 14 14 14 14 14 14 14 14 14 14 14 14 14 14 13 13 12 10 9 8 7 6 6 5 5 5 5
8 8 8 8 9 9 9 9 9 10 10 11 11 12 12 13 13 13 14 14 14 14 14 14 13 14 14 14 14 14 13 13 12 12 10 9 8 7 6 5 4 5 5 4
8 8 8 8 8 8 8 9 9 9 10 11 11 12 12 12 13 13 14 14 14 14 14 14 14 14 14 14 14 13 13 13 12 11 10 9 8 7 6 5 4 4 4 3
6 6 7 7 7 7 7 8 8 9 10 10 11 11 11 12 13 13 13 14 14 14 14 14 13 13 14 14 13 13 12 12 11 11 10 9 9 8 7 6 5 4 4 4
4 5 5 6 6 7 7 7 8 8 9 10 10 11 11 11 12 12 13 13 14 14 14 14 14 13 13 13 13 13 12 12 11 11 10 10 9 9 8 8 7 6 6 6
3 3 4 4 5 6 6 7 8 9 9 10 10 11 11 12 12 12 13 13 14 14 15 15 14 14 13 13 13 13 13 12 12 11 11 11 10 10 10 9 9 8 8 8
1 2 2 3 5 6 6 7 8 9 10 10 11 11 12 12 12 13 13 14 14 15 16 16 15 15 14 14 14 14 14 14 13 13 13 12 12 12 12 12 11 11 11 11
1 1 2 4 5 6 7 7 8 9 10 11 12 12 12 13 14 14 15 15 16 17 17 17 16 16 15 15 15 15 15 15 15 15 15 16 16 15 15 15 15 15 15 16
Wind_Direction
247 247 257 270 268 269 273 281 285 290 294 300 303 305 306 303 302 302 301 301 299 296 294 292 293 293 293 292 293 291 287 283 280 278 278 278 278 277 276 276 276 275 272 271
246 252 259 267 270 276 281 285 290 293 294 297 301 304 305 306 306 305 305 305 304 301 297 295 295 295 293 292 291 291 288 284 281 279 277 276 278 278 276 275 274 274 273 273
244 255 265 268 275 282 287 287 296 300 302 303 304 306 308 309 309 310 309 308 308 305 301 301 299 298 296 293 291 290 287 285 282 282 280 280 279 276 276 275 274 275 276 275
243 250 259 268 279 286 293 299 305 310 309 308 310 311 313 314 314 316 314 314 313 310 307 306 303 301 299 296 295 291 288 288 287 287 284 282 279 277 277 277 278 278 278 276
242 259 271 278 289 298 302 306 309 312 314 315 317 318 319 320 320 319 321 322 320 318 313 310 307 304 301 300 297 293 291 291 291 290 287 285 282 281 281 280 280 281 278 277
258 270 281 289 297 304 311 314 316 318 320 323 327 327 327 329 329 326 328 328 328 326 322 317 315 312 308 306 304 300 298 294 293 293 290 288 286 285 286 284 282 281 280 279
271 279 287 302 312 316 319 326 327 328 332 334 335 335 335 335 337 334 334 335 333 332 330 326 321 319 314 312 311 310 309 305 302 300 299 296 293 290 289 288 286 283 282 280
262 272 290 317 324 327 326 330 334 337 339 343 344 343 342 342 343 342 341 340 339 339 338 334 330 327 323 321 321 320 318 316 312 308 309 309 305 302 301 297 293 289 285 285
280 289 300 310 327 334 332 329 335 338 343 349 350 350 349 349 349 348 348 349 349 348 348 347 344 340 337 336 335 335 334 332 328 323 324 323 319 317 313 308 305 297 292 293
286 292 303 311 326 340 339 337 341 345 350 353 354 354 353 353 353 354 356 359 360 359 359 359 359 358 356 357 357 355 353 350 346 342 340 339 340 338 332 325 318 311 305 301
276 295 311 329 347 350 355 355 353 356 357 358 359 358 357 357 0 2 4 6 7 9 12 15 14 11 9 7 7 5 0 355 354 354 354 353 350 349 343 336 333 330 327 323
297 310 328 343 359 359 0 4 5 3 4 5 5 5 4 5 7 9 11 12 14 17 19 21 21 20 20 19 14 10 8 7 4 3 1 356 354 356 1 2 5 7 5 4
323 338 341 349 2 9 10 9 11 10 11 12 11 11 12 13 15 17 18 19 21 22 21 22 22 22 22 22 19 18 16 13 10 10 10 9 9 11 16 21 28 36 37 39
37 16 11 16 24 24 18 16 15 14 16 15 14 16 18 20 21 22 24 26 26 27 27 27 26 25 23 24 23 20 18 17 17 19 21 21 23 27 30 37 46 51 51 57
61 45 34 37 40 28 19 20 18 18 17 17 18 20 21 22 23 24 25 27 29 30 31 31 29 27 26 26 27 28 27 26 26 28 28 28 29 34 42 50 55 57 62 69
69 52 50 48 40 26 23 22 21 21 20 21 22 23 23 24 25 26 28 29 31 32 32 33 32 32 32 32 33 32 32 31 30 31 32 34 39 43 47 53 57 63 70 74
68 63 60 51 40 35 30 27 26 26 25 25 26 25 25 25 25 26 27 29 30 30 31 31 32 33 34 34 33 31 31 32 33 36 38 41 45 48 52 55 57 64 70 72
80 75 64 59 51 44 39 38 35 33 32 30 30 29 27 26 26 26 26 27 27 27 28 29 29 29 29 30 30 29 29 31 32 35 38 42 45 50 55 56 57 62 68 71
80 76 67 61 56 52 49 46 43 41 39 34 32 30 30 29 28 28 28 27 28 28 27 26 26 25 26 27 28 29 29 29 30 32 37 42 46 51 54 54 55 56 59 63
83 76 70 67 64 60 56 53 49 45 40 36 34 32 30 29 29 28 27 27 27 26 25 23 23 24 25 25 27 28 28 28 27 28 30 33 38 43 46 45 43 46 50 56
86 80 75 71 67 62 59 56 52 47 42 39 36 34 31 29 28 28 27 27 26 24 23 23 22 21 20 20 21 23 24 24 22 21 22 25 28 31 33 31 30 32 37 42
86 78 73 68 64 59 55 52 48 43 38 35 33 31 29 27 26 25 24 24 23 22 22 22 20 19 16 16 16 16 16 18 20 20 21 21 23 23 21 20 19 18 17 16
90 76 67 62 57 52 47 42 38 34 31 28 25 24 23 22 21 20 20 19 18 18 17 16 14 12 11 11 9 9 11 12 14 16 16 14 13 12 9 4 358 352 342 334
92 78 65 56 48 42 37 32 26 21 17 15 14 13 12 12 12 12 12 12 11 10 8 6 5 5 6 5 5 4 4 3 3 3 4 0 356 354 353 351 349 339 328 318
94 71 53 40 31 27 24 21 16 12 8 6 6 5 3 3 2 2 1 2 2 2 360 357 355 356 358 358 357 355 354 353 351 349 346 344 340 337 337 336 332 328 320 311
99 47 28 21 17 14 13 10 7 4 1 358 356 356 355 355 355 355 354 353 353 353 353 352 351 351 350 348 346 345 344 343 340 337 334 331 327 323 321 320 320 317 313 308
259 327 345 350 352 354 353 352 353 352 351 350 350 348 348 347 347 346 346 345 345 344 344 344 343 342 341 338 336 335 333 331 329 327 325 322 318 315 312 310 308 305 304 302
Height
5808 5809 5810 5810 5810 5810 5810 5809 5809 5808 5806 5805 5803 5800 5798 5796 5794 5792 5790 5787 5785 5782 5779 5777 5775 5773 5770 5767 5765 5762 5760 5758 5757 5755 5754 5753 5752 5751 5750 5749 5748 5748 5747 5746
5806 5806 5807 5807 5808 5808 5807 5806 5805 5804 5803 5801 5799 5797 5794 5792 5789 5787 5784 5781 5778 5776 5773 5771 5768 5765 5763 5760 5758 5755 5753 5752 5750 5749 5748 5746 5745 5744 5743 5742 5741 5740 5740 5739
5804 5804 5805 5805 5805 5805 5804 5804 5803 5801 5800 5797 5795 5792 5790 5787 5784 5781 5778 5775 5772 5769 5767 5764 5761 5758 5756 5754 5751 5749 5747 5746 5744 5742 5741 5739 5738 5737 5736 5735 5734 5733 5732 5731
5803 5804 5803 5805 5803 5802 5802 5800 5799 5797 5796 5793 5791 5788 5785 5782 5779 5776 5773 5770 5767 5764 5761 5758 5755 5753 5750 5748 5745 5743 5741 5739 5738 5736 5734 5733 5731 5730 5729 5728 5727 5726 5725 5724
5801 5801 5801 5801 5800 5799 5799 5798 5796 5794 5792 5790 5787 5785 5782 5778 5775 5772 5769 5765 5762 5759 5756 5753 5750 5747 5745 5742 5740 5738 5736 5734 5732 5730 5728 5727 5725 5724 5723 5722 5721 5720 5719 5718
5800 5799 5799 5800 5799 5797 5797 5796 5794 5792 5789 5787 5784 5782 5779 5775 5772 5769 5766 5762 5758 5755 5751 5748 5745 5742 5740 5738 5735 5733 5731 5729 5727 5725 5723 5722 5720 5719 5717 5716 5715 5714 5713 5712
5798 5797 5798 5798 5797 5796 5796 5795 5792 5789 5787 5784 5781 5779 5776 5772 5769 5766 5762 5759 5755 5751 5747 5744 5741 5739 5736 5734 5731 5729 5727 5725 5723 5721 5719 5718 5716 5714 5713 5712 5710 5709 5708 5707
5796 5796 5798 5796 5795 5795 5794 5791 5789 5787 5784 5782 5779 5776 5773 5770 5766 5763 5759 5756 5752 5748 5744 5741 5738 5736 5733 5731 5729 5727 5725 5722 5721 5719 5717 5715 5713 5711 5709 5708 5706 5705 5704 5703
5796 5797 5796 5794 5794 5792 5791 5789 5787 5785 5783 5780 5777 5774 5771 5768 5764 5761 5757 5753 5749 5746 5742 5739 5736 5734 5732 5730 5727 5725 5723 5721 5719 5717 5715 5713 5711 5708 5707 5705 5704 5702 5701 5700
5794 5794 5793 5793 5792 5791 5790 5788 5786 5784 5782 5779 5777 5774 5770 5767 5763 5759 5756 5752 5748 5744 5741 5738 5735 5733 5731 5729 5726 5724 5722 5720 5718 5716 5714 5711 5709 5707 5705 5703 5702 5700 5699 5698
5792 5792 5792 5791 5791 5790 5788 5787 5785 5783 5781 5779 5776 5773 5770 5766 5762 5759 5755 5751 5748 5744 5741 5738 5735 5733 5731 5729 5726 5724 5722 5720 5717 5715 5713 5710 5708 5706 5704 5702 5700 5699 5698 5697
5791 5791 5791 5791 5790 5789 5788 5786 5784 5782 5780 5778 5775 5772 5769 5766 5762 5759 5755 5751 5748 5745 5742 5739 5736 5734 5731 5729 5727 5724 5722 5719 5717 5715 5712 5710 5708 5706 5703 5702 5700 5698 5697 5696
5790 5790 5790 5789 5789 5788 5787 5786 5784 5782 5780 5778 5775 5772 5769 5766 5762 5759 5755 5752 5749 5746 5743 5740 5737 5735 5732 5730 5727 5725 5722 5720 5717 5715 5713 5710 5708 5706 5704 5703 5701 5700 5698 5697
5788 5788 5788 5788 5788 5787 5786 5785 5784 5782 5780 5777 5775 5772 5769 5766 5763 5760 5756 5753 5750 5747 5744 5741 5738 5736 5733 5731 5728 5726 5723 5721 5718 5716 5714 5711 5709 5707 5705 5704 5703 5702 5701 5699
5787 5787 5788 5787 5787 5787 5786 5785 5783 5782 5780 5777 5775 5772 5770 5767 5764 5761 5758 5755 5752 5749 5746 5743 5740 5738 5735 5732 5729 5727 5725 5722 5720 5717 5715 5713 5711 5709 5707 5706 5705 5704 5703 5702
5787 5787 5787 5787 5787 5786 5785 5785 5783 5782 5780 5778 5775 5773 5770 5768 5765 5762 5759 5756 5754 5751 5748 5745 5742 5740 5737 5734 5731 5729 5726 5724 5721 5719 5717 5715 5713 5712 5710 5709 5708 5706 5706 5705
5787 5787 5787 5787 5787 5786 5785 5784 5783 5782 5780 5778 5776 5774 5772 5769 5766 5763 5761 5758 5755 5753 5750 5747 5745 5742 5739 5737 5734 5731 5729 5726 5724 5721 5719 5717 5716 5714 5713 5712 5711 5709 5708 5708
5787 5787 5787 5787 5787 5786 5785 5785 5783 5782 5781 5779 5777 5775 5773 5770 5768 5765 5762 5760 5757 5755 5752 5750 5747 5745 5742 5739 5736 5734 5731 5729 5726 5724 5722 5720 5718 5717 5716 5715 5714 5713 5712 5711
5788 5788 5787 5787 5786 5786 5786 5785 5784 5783 5782 5780 5778 5776 5774 5772 5769 5767 5764 5762 5759 5757 5755 5752 5750 5747 5744 5742 5739 5736 5734 5731 5729 5727 5725 5723 5721 5720 5719 5718 5717 5716 5715 5714
5788 5788 5788 5788 5787 5787 5787 5786 5785 5784 5783 5781 5780 5778 5776 5774 5771 5769 5766 5764 5761 5759 5757 5754 5752 5749 5747 5744 5741 5739 5736 5734 5731 5729 5727 5725 5724 5722 5721 5720 5719 5718 5717 5716
5790 5790 5789 5789 5789 5788 5788 5787 5786 5785 5784 5783 5781 5779 5777 5775 5773 5771 5768 5766 5764 5761 5758 5756 5753 5751 5748 5746 5743 5741 5738 5736 5734 5731 5729 5728 5726 5725 5723 5722 5721 5720 5719 5718
5791 5791 5791 5791 5790 5790 5789 5789 5788 5787 5785 5784 5782 5781 5779 5777 5775 5772 5770 5768 5765 5763 5760 5758 5755 5752 5750 5747 5745 5742 5740 5738 5735 5733 5731 5730 5728 5726 5725 5724 5723 5722 5721 5720
5792 5793 5792 5792 5792 5791 5790 5790 5789 5788 5786 5785 5784 5782 5780 5778 5776 5774 5772 5769 5767 5764 5762 5759 5756 5754 5751 5748 5746 5744 5741 5739 5737 5735 5733 5731 5729 5728 5726 5725 5723 5722 5721 5720
5793 5793 5793 5793 5793 5792 5791 5790 5789 5788 5787 5786 5784 5782 5781 5779 5777 5774 5772 5770 5768 5765 5762 5760 5757 5755 5752 5749 5747 5744 5742 5740 5738 5736 5734 5732 5730 5728 5727 5725 5723 5722 5721 5720
5793 5794 5794 5793 5793 5792 5792 5791 5790 5788 5787 5786 5784 5782 5781 5779 5777 5775 5772 5770 5768 5765 5763 5760 5757 5755 5752 5750 5747 5745 5742 5740 5738 5736 5734 5732 5730 5728 5726 5725 5723 5721 5720 5719
5793 5793 5793 5793 5793 5792 5791 5791 5789 5788 5787 5785 5784 5782 5780 5778 5776 5774 5772 5770 5767 5765 5762 5759 5757 5754 5752 5749 5747 5744 5742 5739 5737 5735 5733 5731 5729 5727 5725 5723 5722 5720 5718 5717
5792 5793 5793 5793 5792 5792 5791 5790 5789 5788 5786 5785 5783 5781 5779 5777 5775 5773 5771 5769 5766 5763 5761 5758 5755 5753 5750 5748 5745 5743 5740 5738 5736 5733 5731 5729 5726 5724 5722 5720 5719 5717 5715 5713